VK5ARG-5 Weather Reports


time (UTC)temp
F
wind
direction
speed
knots
gust
knots
rain 1hr
in
rain 24hr
in
rain mn
in
humidity
%
barometer
mb
20260509011523 56 174 4.3 6.1 0.00 0.00 0.00 86
20260509010609 55 152 3.5 7.0 0.00 0.00 0.00 86
20260509005525 56 134 4.3 7.0 0.00 0.00 0.00 86
20260509004520 56 174 2.6 5.2 0.00 0.00 0.00 87
20260509003526 55 173 4.3 7.0 0.00 0.00 0.00 88
20260509002523 55 216 4.3 6.1 0.00 0.00 0.00 89
20260509001527 55 205 1.7 4.3 0.00 0.00 0.00 88
20260509000524 54 111 2.6 3.5 0.00 0.00 0.00 89
20260508235529 55 129 5.2 7.8 0.00 0.00 0.00 88
20260508234524 54 125 4.3 6.1 0.00 0.00 0.00 89
20260508233521 54 119 4.3 7.8 0.00 0.00 0.00 88
20260508232526 54 133 3.5 7.0 0.00 0.00 0.00 89
20260508231522 54 130 3.5 5.2 0.00 0.00 0.00 89
20260508230527 53 134 3.5 5.2 0.00 0.00 0.00 90
20260508225524 53 131 3.5 5.2 0.00 0.00 0.00 91
20260508224528 53 119 1.7 2.6 0.00 0.00 0.00 91
20260508223525 53 166 0.0 1.7 0.00 0.00 0.00 92
20260508222521 52 290 0.0 0.9 0.00 0.00 0.00 92
20260508221526 52 258 1.7 3.5 0.00 0.00 0.00 92
20260508220523 52 244 0.9 1.7 0.00 0.00 0.00 92
20260508215548 52 232 0.0 1.7 0.00 0.00 0.00 92
20260508214523 52 133 0.9 1.7 0.00 0.00 0.00 92
20260508213529 52 134 1.7 2.6 0.00 0.00 0.00 92
20260508212524 52 120 2.6 3.5 0.00 0.00 0.00 93
20260508211521 52 99 2.6 3.5 0.00 0.00 0.00 93
20260508210525 52 79 3.5 4.3 0.00 0.00 0.00 94
20260508205522 52 90 2.6 3.5 0.00 0.00 0.00 94
20260508204527 52 91 2.6 3.5 0.00 0.00 0.00 94
20260508203543 52 83 3.5 4.3 0.00 0.00 0.00 94
20260508202529 52 78 2.6 3.5 0.00 0.00 0.00 93
20260508201524 52 90 2.6 3.5 0.00 0.00 0.00 94
20260508200542 51 76 2.6 3.5 0.00 0.00 0.00 95
20260508195526 51 77 3.5 4.3 0.00 0.00 0.00 95
20260508194522 52 79 3.5 4.3 0.00 0.00 0.00 95
20260508193527 51 86 3.5 4.3 0.00 0.00 0.00 95
20260508192524 52 95 3.5 4.3 0.00 0.00 0.00 95
20260508191548 52 96 4.3 5.2 0.00 0.00 0.00 94
20260508190524 52 104 3.5 5.2 0.00 0.00 0.00 93
20260508185520 52 109 6.1 9.6 0.00 0.00 0.00 95
20260508184525 52 103 5.2 7.0 0.00 0.00 0.00 95
20260508183522 52 115 5.2 7.8 0.00 0.00 0.00 95
20260508182527 52 112 6.1 7.8 0.00 0.00 0.00 95
20260508181523 52 103 5.2 6.1 0.00 0.00 0.00 95
20260508180528 52 102 5.2 7.8 0.00 0.00 0.00 94
20260508175545 52 105 4.3 6.1 0.00 0.00 0.00 94
20260508174521 52 115 3.5 5.2 0.00 0.00 0.00 94
20260508173526 52 112 3.5 4.3 0.00 0.00 0.00 94
20260508172543 52 137 1.7 2.6 0.00 0.00 0.00 94
20260508171526 52 153 2.6 3.5 0.00 0.00 0.00 95
20260508170523 51 135 2.6 3.5 0.00 0.00 0.00 96
20260508165528 51 150 2.6 4.3 0.00 0.00 0.00 96
20260508164524 51 146 2.6 3.5 0.00 0.00 0.00 96
20260508163521 51 145 2.6 3.5 0.00 0.00 0.00 96
20260508162525 51 151 2.6 4.3 0.00 0.00 0.00 95
20260508161541 51 138 2.6 4.3 0.00 0.00 0.00 94
20260508160527 51 132 3.5 5.2 0.00 0.00 0.00 93
20260508155522 52 157 2.6 4.3 0.00 0.00 0.00 92
20260508154528 52 131 4.3 7.8 0.00 0.00 0.00 91
20260508153524 52 121 6.1 7.8 0.00 0.00 0.00 91
20260508152521 52 123 6.1 8.7 0.00 0.00 0.00 92
20260508151525 52 133 7.8 10.4 0.00 0.00 0.00 93
20260508150522 51 138 7.0 10.4 0.00 0.00 0.00 95
20260508145527 51 141 7.8 12.2 0.00 0.00 0.00 97
20260508144523 51 140 7.0 9.6 0.00 0.00 0.00 97
20260508143528 51 141 5.2 9.6 0.00 0.00 0.00 97
20260508142524 51 140 6.1 10.4 0.00 0.00 0.00 97
20260508141520 51 141 6.1 8.7 0.00 0.00 0.00 97
20260508140525 52 147 5.2 8.7 0.00 0.00 0.00 97
20260508135522 52 149 6.1 9.6 0.00 0.00 0.00 97
20260508134528 51 146 5.2 8.7 0.00 0.00 0.00 97
20260508133523 51 144 6.1 9.6 0.00 0.00 0.00 98
20260508132548 51 142 7.0 9.6 0.00 0.00 0.00 99
20260508131544 51 148 5.2 8.7 0.00 0.00 0.00 99
20260508130520 52 154 6.1 9.6 0.00 0.00 0.00 99
20260508125525 52 164 6.1 7.8 0.00 0.00 0.00 99
20260508124522 52 172 5.2 7.8 0.00 0.00 0.00 99
20260508123547 52 175 4.3 6.1 0.00 0.00 0.00 99
20260508122523 52 176 5.2 7.0 0.00 0.00 0.00 99
20260508121529 52 185 5.2 7.8 0.00 0.00 0.00 99
20260508120525 52 199 4.3 6.1 0.00 0.00 0.00 99
20260508115520 53 191 3.5 6.1 0.00 0.00 0.00 99
20260508114525 53 192 3.5 5.2 0.00 0.00 0.00 99
20260508113543 53 185 4.3 5.2 0.00 0.00 0.00 99
20260508112527 53 186 4.3 7.0 0.00 0.00 0.00 99
20260508111523 53 198 3.5 5.2 0.00 0.00 0.00 99
20260508110528 53 212 3.5 6.1 0.00 0.00 0.00 99
20260508105524 53 213 3.5 6.1 0.00 0.00 0.00 99
20260508104521 53 216 4.3 7.0 0.00 0.00 0.00 99
20260508103525 53 235 7.0 9.6 0.00 0.00 0.00 99
20260508102542 53 234 6.1 8.7 0.00 0.00 0.00 99
20260508101527 53 224 5.2 8.7 0.00 0.00 0.00 99
20260508100523 53 227 7.0 10.4 0.00 0.00 0.00 99
20260508095528 53 219 7.0 12.2 0.00 0.00 0.00 99
20260508094524 53 216 6.1 8.7 0.00 0.00 0.00 99
20260508093540 53 215 6.1 8.7 0.00 0.00 0.00 99
20260508092525 54 219 8.7 13.9 0.00 0.00 0.00 99
20260508091522 54 230 8.7 13.0 0.00 0.00 0.00 98
20260508090527 53 223 7.0 10.4 0.00 0.00 0.00 98
20260508085524 53 209 6.1 9.6 0.00 0.00 0.00 98
20260508084529 53 201 7.0 9.6 0.00 0.00 0.00 98
20260508083524 54 195 7.8 11.3 0.00 0.00 0.00 97
20260508082520 54 216 7.8 13.0 0.00 0.00 0.00 97
20260508081545 54 216 7.8 12.2 0.00 0.00 0.00 97
20260508080542 54 217 8.7 13.0 0.00 0.00 0.00 96
20260508075527 54 209 9.6 15.6 0.00 0.00 0.00 95
20260508074544 55 212 11.3 17.4 0.00 0.00 0.00 92
20260508073528 56 228 11.3 16.5 0.00 0.00 0.00 92
20260508072524 55 238 9.6 13.9 0.00 0.00 0.00 94
20260508071541 55 241 8.7 13.0 0.00 0.00 0.00 95
20260508070526 55 236 10.4 14.8 0.00 0.00 0.00 95
20260508065521 56 238 10.4 13.9 0.00 0.00 0.00 95
20260508064526 55 222 10.4 14.8 0.00 0.00 0.00 98
20260508063524 55 223 8.7 13.0 0.00 0.00 0.00 98
20260508062528 54 228 8.7 13.0 0.00 0.00 0.00 98
20260508061524 54 219 8.7 13.0 0.00 0.00 0.00 98
20260508060521 53 216 11.3 15.6 0.00 0.00 0.00 98
20260508055526 54 224 10.4 17.4 0.00 0.00 0.00 97
20260508054522 54 229 12.2 19.1 0.00 0.00 0.00 97
20260508053526 56 213 13.0 18.2 0.00 0.00 0.00 92
20260508052523 56 228 9.6 14.8 0.00 0.00 0.00 96
20260508051548 55 204 10.4 14.8 0.00 0.00 0.00 95
20260508050525 56 211 12.2 17.4 0.00 0.00 0.00 89
20260508045542 55 220 10.4 15.6 0.00 0.00 0.00 91
20260508044526 57 224 11.3 19.1 0.00 0.00 0.00 86
20260508043522 57 228 10.4 18.2 0.00 0.00 0.00 84
20260508042527 56 227 8.7 13.9 0.00 0.00 0.00 89
20260508041523 55 220 10.4 16.5 0.00 0.00 0.00 91
20260508040527 55 222 8.7 13.0 0.00 0.00 0.00 90
20260508035524 55 227 12.2 18.2 0.00 0.00 0.00 90
20260508034521 56 225 11.3 17.4 0.00 0.00 0.00 86
20260508033525 56 236 11.3 15.6 0.00 0.00 0.00 84
20260508032522 55 235 8.7 14.8 0.00 0.00 0.00 89
20260508031526 54 238 11.3 16.5 0.00 0.00 0.00 93
20260508030524 55 228 10.4 17.4 0.00 0.00 0.00 92
20260508025527 54 214 9.6 13.0 0.00 0.00 0.00 90
20260508024523 55 236 11.3 16.5 0.00 0.00 0.00 92
20260508023520 54 236 10.4 13.9 0.00 0.00 0.00 95
20260508022525 53 231 10.4 16.5 0.00 0.00 0.00 96
20260508021521 53 230 9.6 13.9 0.00 0.00 0.00 96
20260508020527 53 224 7.8 12.2 0.00 0.00 0.00 96
20260508015523 53 215 9.6 13.0 0.00 0.00 0.00 94
20260508014549 53 220 11.3 15.6 0.00 0.00 0.00 92
20260508013546 54 226 13.0 18.2 0.00 0.00 0.00 86
20260508012519 54 225 11.3 18.2 0.00 0.00 0.00 84